TimeHST,TemperatureF,Dew PointF,Humidity,Sea Level PressureIn,VisibilityMPH,Wind Direction,Wind SpeedMPH,Gust SpeedMPH,PrecipitationIn,Events,Conditions,WindDirDegrees,DateUTC
12:53 AM,75.0,64.0,69,30.02,10.0,ESE,9.2,-,N/A,,Clear,110,2012-12-27 10:53:00
1:53 AM,73.9,64.0,71,30.01,10.0,ESE,6.9,-,N/A,,Mostly Cloudy,110,2012-12-27 11:53:00
2:53 AM,73.9,62.1,66,29.99,10.0,East,6.9,-,0.00,,Overcast,80,2012-12-27 12:53:00
3:53 AM,73.0,62.1,68,29.98,10.0,ENE,3.5,-,N/A,,Mostly Cloudy,70,2012-12-27 13:53:00
4:53 AM,71.1,62.1,73,29.97,10.0,ENE,4.6,-,N/A,,Clear,70,2012-12-27 14:53:00
5:53 AM,70.0,59.0,68,29.97,10.0,ENE,4.6,-,N/A,,Clear,70,2012-12-27 15:53:00
6:53 AM,70.0,57.9,65,29.98,10.0,ENE,3.5,-,N/A,,Clear,70,2012-12-27 16:53:00
7:53 AM,72.0,60.1,66,29.99,10.0,NNE,3.5,-,N/A,,Clear,30,2012-12-27 17:53:00
8:53 AM,77.0,63.0,62,29.99,10.0,Calm,Calm,-,N/A,,Clear,0,2012-12-27 18:53:00
9:53 AM,79.0,64.9,62,29.99,10.0,SSW,8.1,-,N/A,,Clear,210,2012-12-27 19:53:00
10:53 AM,80.1,64.9,60,29.98,10.0,SSW,10.4,-,N/A,,Clear,200,2012-12-27 20:53:00
11:53 AM,81.0,64.9,58,29.96,10.0,South,11.5,-,N/A,,Clear,190,2012-12-27 21:53:00
12:53 PM,80.1,64.0,58,29.93,10.0,SSW,11.5,-,N/A,,Clear,200,2012-12-27 22:53:00
1:53 PM,81.0,63.0,54,29.92,10.0,WSW,10.4,-,N/A,,Clear,240,2012-12-27 23:53:00
2:53 PM,81.0,64.9,58,29.91,10.0,WSW,10.4,-,N/A,,Clear,240,2012-12-28 00:53:00
3:53 PM,80.1,64.0,58,29.91,10.0,SSW,9.2,-,N/A,,Clear,200,2012-12-28 01:53:00
4:53 PM,80.1,64.0,58,29.92,10.0,SSW,9.2,-,N/A,,Clear,200,2012-12-28 02:53:00
5:53 PM,78.1,64.9,64,29.94,10.0,SSW,8.1,-,N/A,,Overcast,200,2012-12-28 03:53:00
6:53 PM,77.0,64.0,64,29.96,10.0,South,4.6,-,N/A,,Overcast,170,2012-12-28 04:53:00
7:53 PM,77.0,64.9,66,29.97,10.0,South,3.5,-,N/A,,Mostly Cloudy,180,2012-12-28 05:53:00
8:53 PM,77.0,64.0,64,29.98,10.0,Calm,Calm,-,N/A,,Scattered Clouds,0,2012-12-28 06:53:00
9:53 PM,75.9,64.9,69,29.99,10.0,West,4.6,-,N/A,,Mostly Cloudy,260,2012-12-28 07:53:00
10:53 PM,75.9,64.0,67,29.98,10.0,WNW,4.6,-,N/A,,Clear,290,2012-12-28 08:53:00
11:53 PM,73.9,63.0,68,29.97,10.0,ENE,3.5,-,N/A,,Clear,60,2012-12-28 09:53:00